GW3653 Weather Reports


Display with metric or nautical units.
time (UTC)temp
F
wind
direction
speed
MPH
gust
MPH
rain 1hr
in
rain 24hr
in
rain mn
in
humidity
%
barometer
mb
20260504043518 64 0.0 0.0 0.00 0.04 0.03 75 1028.4
20260504042517 64 0.0 1.0 0.00 0.04 0.03 75 1028.6
20260504041537 63 0.0 1.0 0.00 0.04 0.03 76 1028.7
20260504040517 63 0.0 2.0 0.00 0.04 0.03 75 1028.8
20260504035517 62 225 1.0 4.0 0.00 0.04 0.03 79 1028.8
20260504034517 62 225 1.0 3.0 0.00 0.04 0.03 81 1029.0
20260504033517 62 225 1.0 3.0 0.00 0.04 0.03 84 1029.1
20260504032517 62 225 1.0 3.0 0.00 0.04 0.03 86 1029.3
20260504031517 61 248 1.0 4.0 0.00 0.04 0.03 89 1029.3
20260504030518 61 248 1.0 3.0 0.00 0.04 0.03 91 1029.3
20260504025517 61 0.0 2.0 0.00 0.04 0.03 92 1029.4
20260504024537 60 225 1.0 2.0 0.00 0.04 0.03 93 1029.3
20260504023519 60 0.0 1.0 0.00 0.04 0.03 94 1029.4
20260504022519 59 180 1.0 2.0 0.00 0.04 0.03 94 1029.4
20260504021519 59 0.0 2.0 0.00 0.04 0.03 94 1029.4
20260504020519 59 225 1.0 3.0 0.00 0.04 0.03 94 1029.4
20260504015519 58 0.0 1.0 0.00 0.04 0.03 94 1029.4
20260504014519 58 248 1.0 2.0 0.00 0.04 0.03 94 1029.3
20260504013519 57 0.0 3.0 0.00 0.04 0.03 94 1029.4
20260504012519 57 225 1.0 3.0 0.00 0.04 0.03 95 1029.6
20260504011519 57 0.0 2.0 0.00 0.04 0.03 95 1029.6
20260504010519 57 0.0 1.0 0.00 0.04 0.03 95 1029.6
20260504005519 57 0.0 1.0 0.00 0.04 0.03 95 1029.7
20260504004519 57 0.0 2.0 0.00 0.04 0.03 95 1029.6
20260504003519 56 0.0 1.0 0.00 0.04 0.03 95 1029.5
20260504002519 56 0.0 1.0 0.00 0.04 0.03 95 1029.5
20260504001519 56 0.0 0.0 0.00 0.04 0.03 95 1029.4
20260504000519 56 0.0 1.0 0.00 0.04 0.03 95 1029.3
20260503235519 55 0.0 1.0 0.00 0.04 0.03 95 1029.2
20260503234519 55 0.0 0.0 0.00 0.04 0.03 95 1029.1
20260503233518 55 0.0 0.0 0.00 0.04 0.03 95 1028.9
20260503232519 55 0.0 0.0 0.00 0.05 0.03 95 1028.8
20260503231518 55 0.0 0.0 0.00 0.06 0.03 95 1028.5
20260503230518 55 0.0 0.0 0.00 0.06 0.03 95 1028.5
20260503225519 55 0.0 0.0 0.00 0.06 0.03 95 1028.5
20260503224518 55 0.0 1.0 0.01 0.06 0.03 95 1028.4
20260503223518 55 0.0 1.0 0.01 0.06 0.03 95 1028.4
20260503222519 55 0.0 0.0 0.02 0.06 0.03 95 1028.4
20260503221519 55 0.0 1.0 0.02 0.06 0.03 95 1028.4
20260503220519 55 0.0 2.0 0.02 0.06 0.03 95 1028.3
20260503215538 55 0.0 0.0 0.02 0.06 0.03 95 1028.4
20260503214519 55 0.0 0.0 0.02 0.05 0.02 95 1028.4
20260503213518 55 0.0 1.0 0.02 0.05 0.02 95 1028.3
20260503212518 55 0.0 1.0 0.01 0.04 0.02 95 1028.5
20260503211522 54 0.0 0.0 0.01 0.04 0.02 95 1028.5
20260503210519 55 0.0 0.0 0.00 0.03 0.01 95 1028.4
20260503205518 55 0.0 0.0 0.00 0.03 0.01 95 1028.5
20260503204518 54 0.0 0.0 0.00 0.03 0.01 95 1028.6
20260503203518 54 0.0 0.0 0.00 0.03 0.01 95 1028.6
20260503202518 53 0.0 0.0 0.00 0.03 0.01 95 1028.6
20260503201519 53 0.0 0.0 0.00 0.03 0.01 94 1028.5
20260503200518 53 0.0 0.0 0.00 0.03 0.01 94 1028.4
20260503195518 53 0.0 0.0 0.00 0.03 0.01 94 1028.5
20260503194538 54 0.0 0.0 0.00 0.03 0.01 94 1028.4
20260503193518 54 0.0 0.0 0.01 0.03 0.01 94 1028.2
20260503192518 54 0.0 1.0 0.01 0.03 0.01 94 1028.2
20260503191518 54 0.0 0.0 0.01 0.04 0.01 94 1028.2
20260503190538 54 0.0 1.0 0.01 0.04 0.01 94 1028.3
20260503185538 54 0.0 0.0 0.01 0.04 0.01 94 1028.4
20260503184518 54 0.0 0.0 0.01 0.04 0.01 95 1028.4
20260503183518 54 0.0 0.0 0.00 0.03 0.00 95 1028.4
20260503182518 53 0.0 0.0 0.00 0.03 0.00 94 1028.5
20260503181518 53 0.0 0.0 0.00 0.03 0.00 94 1028.5
20260503180518 53 0.0 0.0 0.00 0.03 0.00 94 1028.4
20260503175518 53 0.0 0.0 0.00 0.04 0.00 94 1028.5
20260503174518 54 0.0 0.0 0.00 0.04 0.00 94 1028.5
20260503173518 54 0.0 0.0 0.00 0.04 0.00 94 1028.5
20260503172538 54 0.0 1.0 0.00 0.04 0.00 94 1028.6
20260503171518 54 0.0 0.0 0.00 0.04 0.00 94 1028.6
20260503170518 54 0.0 1.0 0.00 0.04 0.00 94 1028.6
20260503150538 55 0.0 0.0 0.01 0.06 0.05 93 1028.5
20260503130518 55 0.0 0.0 0.00 0.07 0.04 92 1028.6
20260503110517 57 0.0 0.0 0.00 0.12 0.04 91 1028.0
20260503081517 62 225 1.0 4.0 0.00 0.17 0.04 81 1026.9
20260503080537 62 225 1.0 4.0 0.00 0.17 0.04 81 1026.9
20260503072517 61 0.0 2.0 0.00 0.17 0.04 82 1026.8
20260503071517 62 113 1.0 4.0 0.00 0.17 0.04 81 1026.9
20260503070517 62 0.0 3.0 0.00 0.18 0.04 80 1026.8
20260503054519 63 225 1.0 5.0 0.00 0.18 0.04 79 1026.6
20260503053519 63 203 2.0 6.0 0.00 0.18 0.04 78 1026.6
20260503052519 63 113 1.0 3.0 0.00 0.18 0.04 76 1026.6
20260503051519 64 0.0 2.0 0.00 0.18 0.04 77 1026.6
20260503050519 63 180 1.0 3.0 0.00 0.18 0.04 78 1026.6
20260503045519 63 113 1.0 6.0 0.00 0.18 0.04 78 1026.7
20260503044519 63 0.0 2.0 0.00 0.18 0.04 78 1026.8